TimeEDT,TemperatureF,Dew PointF,Humidity,Sea Level PressureIn,VisibilityMPH,Wind Direction,Wind SpeedMPH,Gust SpeedMPH,PrecipitationIn,Events,Conditions,WindDirDegrees,DateUTC
12:54 AM,57.9,57.0,97,29.91,2.0,Calm,Calm,-,0.06,Rain,Rain,0,2012-10-02 04:54:00
1:54 AM,57.9,57.0,97,29.92,2.0,Calm,Calm,-,0.25,Rain,Light Rain,0,2012-10-02 05:54:00
2:54 AM,57.2,57.2,100,29.91,2.0,Calm,Calm,-,N/A,Rain,Light Rain,0,2012-10-02 06:54:00
3:54 AM,57.9,57.0,97,29.89,2.0,Calm,Calm,-,0.02,,Overcast,0,2012-10-02 07:54:00
4:54 AM,59.0,57.0,93,29.89,2.0,Calm,Calm,-,0.01,Rain,Light Rain,0,2012-10-02 08:54:00
5:54 AM,59.0,57.0,93,29.88,2.0,North,3.5,-,0.01,Rain,Light Rain,350,2012-10-02 09:54:00
6:54 AM,59.0,57.0,93,29.89,2.0,NNE,4.6,-,0.09,Rain,Light Rain,30,2012-10-02 10:54:00
7:21 AM,59.0,57.2,94,29.91,5.0,NE,4.6,-,0.00,Rain,Light Rain,50,2012-10-02 11:21:00
7:54 AM,59.0,57.0,93,29.90,2.5,NNE,3.5,-,0.01,Rain,Light Rain,30,2012-10-02 11:54:00
8:54 AM,60.1,57.9,93,29.91,2.5,Calm,Calm,-,0.00,,Light Drizzle,0,2012-10-02 12:54:00
9:07 AM,60.8,57.2,88,29.93,2.5,Calm,Calm,-,0.00,,Light Drizzle,0,2012-10-02 13:07:00
9:21 AM,60.8,57.2,88,29.93,2.0,Calm,Calm,-,0.00,,Light Drizzle,0,2012-10-02 13:21:00
9:31 AM,60.8,57.2,88,29.93,2.0,Calm,Calm,-,0.00,,Light Drizzle,0,2012-10-02 13:31:00
9:54 AM,61.0,59.0,93,29.91,3.0,North,4.6,-,0.00,,Light Drizzle,350,2012-10-02 13:54:00
10:04 AM,60.8,59.0,94,29.93,1.5,NNE,4.6,-,0.01,,Light Drizzle,20,2012-10-02 14:04:00
10:15 AM,60.8,59.0,94,29.93,1.5,NE,3.5,-,0.02,,Light Drizzle,50,2012-10-02 14:15:00
10:54 AM,62.1,60.1,93,29.93,1.5,NNE,3.5,-,0.03,Rain,Light Rain,20,2012-10-02 14:54:00
11:54 AM,63.0,61.0,93,29.93,2.0,NE,3.5,-,0.02,,Overcast,50,2012-10-02 15:54:00
12:54 PM,64.0,61.0,90,29.92,2.0,NE,3.5,-,N/A,,Overcast,40,2012-10-02 16:54:00
1:54 PM,64.9,62.1,90,29.90,2.0,ESE,3.5,-,N/A,,Overcast,110,2012-10-02 17:54:00
2:54 PM,66.9,63.0,87,29.89,2.0,Calm,Calm,-,N/A,,Overcast,0,2012-10-02 18:54:00
3:05 PM,66.2,62.6,88,29.91,6.0,NE,3.5,-,N/A,,Overcast,40,2012-10-02 19:05:00
3:54 PM,66.9,63.0,87,29.88,6.0,Calm,Calm,-,N/A,,Overcast,0,2012-10-02 19:54:00
4:54 PM,66.0,64.0,93,29.89,6.0,Calm,Calm,-,N/A,,Overcast,0,2012-10-02 20:54:00
5:54 PM,66.0,64.0,93,29.91,4.0,SSE,3.5,-,N/A,,Overcast,150,2012-10-02 21:54:00
6:22 PM,66.2,64.4,94,29.93,4.0,ESE,4.6,-,N/A,,Mostly Cloudy,120,2012-10-02 22:22:00
6:28 PM,66.2,64.4,94,29.94,2.5,ESE,5.8,-,N/A,,Overcast,110,2012-10-02 22:28:00
6:38 PM,66.2,64.4,94,29.94,2.5,ESE,3.5,-,N/A,,Overcast,110,2012-10-02 22:38:00
6:54 PM,66.9,64.9,93,29.92,2.5,ESE,4.6,-,N/A,,Overcast,110,2012-10-02 22:54:00
7:17 PM,66.2,64.4,94,29.95,2.5,Calm,Calm,-,N/A,,Overcast,0,2012-10-02 23:17:00
7:54 PM,66.9,64.9,93,29.93,2.5,Calm,Calm,-,N/A,,Overcast,0,2012-10-02 23:54:00
8:54 PM,66.9,64.9,93,29.95,2.5,Calm,Calm,-,N/A,,Overcast,0,2012-10-03 00:54:00
9:22 PM,66.2,66.2,100,29.98,0.2,Calm,Calm,-,N/A,Fog,Fog,0,2012-10-03 01:22:00
9:54 PM,66.9,66.0,97,29.97,0.2,Calm,Calm,-,0.00,Fog,Fog,0,2012-10-03 01:54:00
10:54 PM,66.9,66.0,97,29.98,0.8,Calm,Calm,-,N/A,,Overcast,0,2012-10-03 02:54:00
11:08 PM,66.2,66.2,100,30.00,1.5,Calm,Calm,-,N/A,,Overcast,0,2012-10-03 03:08:00
11:54 PM,66.9,66.0,97,29.99,1.5,Calm,Calm,-,N/A,,Overcast,0,2012-10-03 03:54:00